Regional Weather Roundup
Issued by NWS Newport/Morehead, NC

Current Version | Previous Version | Graphics & Text | Print | Product List | Glossary Off
Versions: 1 2 3 4 5 6 7 8 9 10 11 12 13 14 15 16 17 18 19 20 21 22 23 24 25 26 27 28 29 30 31 32 33 34 35 36 37 38 39 40 41 42 43 44 45 46 47 48

000
ASUS42 KMHX 210622
RWRMHX
WEATHER ROUNDUP FOR EASTERN NORTH CAROLINA
NATIONAL WEATHER SERVICE NEWPORT/MOREHEAD CITY NC
200 AM EDT MON APR 21 2014

NOTE: "FAIR" INDICATES FEW OR NO CLOUDS BELOW 12,000 FEET
WITH NO SIGNIFICANT WEATHER AND/OR OBSTRUCTIONS TO VISIBILITY

NCZ015>017-031-032-045>047-102-103-210700-
NORTH COAST

CITY           SKY/WX    TMP DP  RH WIND       PRES   REMARKS
EDENTON        CLOUDY    48  44  84 N15G22    30.13F
ELIZABETH CITY LGT RAIN  47  44  90 N20G25    30.14F FOG
KITTY HAWK     CLOUDY    47  46  94 N15G22    30.08F FOG
MANTEO         CLOUDY    48  46  94 N20G29    30.08F

$$

NCZ045>047-081-094-103-104-210700-
CENTRAL COAST

CITY           SKY/WX    TMP DP  RH WIND       PRES   REMARKS
FRISCO         CLOUDY    49  49 100 N16G32    30.01F FOG
SWANQUARTER      N/A     48 N/A N/A N9G20     30.06S

$$

NCZ095-097-098-100-101-210700-
SOUTHERN COAST

CITY           SKY/WX    TMP DP  RH WIND       PRES   REMARKS
BEAUFORT       CLOUDY    51  48  89 N17G24    30.05F
CEDAR ISLAND     N/A     52 N/A N/A N22G39    30.09F
JACKSONVILLE   FAIR      51  45  79 N20       30.08F
NEWPORT          N/A     52  48  87 N10G16      N/A
PINEY ISLAND   CLOUDY    53  50  89 N26G36    30.05F
WILMINGTON     CLOUDY    54  42  64 N15G23    30.07F


$$

NCZ011>013-027>030-043-044-078>080-089-090>093-098-210700-
COASTAL PLAIN

CITY           SKY/WX    TMP DP  RH WIND       PRES   REMARKS
AHOSKIE        FAIR      46  35  64 N9        30.19F
CLINTON        FAIR      52  41  65 N8        30.13F
ELIZABETHTOWN  MOCLDY    53  41  62 N3        30.11F
GOLDSBORO      FAIR      51  39  63 N10G17    30.13F
GREENVILLE     CLOUDY    50  39  66 N13G18    30.16F
HAVELOCK       CLOUDY    52  46  80 N21       30.08F
KENANSVILLE    MOCLDY    51  40  65 N9        30.13F
KINSTON        CLOUDY    51  40  65 N13       30.14F
NEW BERN       CLOUDY    52  45  77 N16       30.10F
RICHLANDS      FAIR      50  50 100 N9        30.10F
ROANOKE RAPIDS NOT AVBL
ROCKY MOUNT    CLOUDY    49  35  58 N13       30.18F
WASHINGTON     CLOUDY    53  47  82 N10       30.13F
WHITEVILLE     FAIR      55  41  60 N7        30.10F

$$

AMZ130-135-150-152-154-156-158-170-250-252-270-ANZ085-086-088-633-658-670-210700-
MARINE OBSERVATIONS

STATION/POSITION TIME  TEMP    WIND        PRES    WAVE   SWELL
                       AIR SEA DIR/SP/G            HT/PER HT/PER
                 (UTC) (F)     (DEG/KT/KT) (MB)    (FT/S) (FT/S)
CHESAPEAKE LIGHT 0600   46      20/ 25/ 27 1021.1
BUOY 44014       0600   51 48   20/ 21/ 25 1018.0   13/11  11/11
DUCK             0600   47 49   10/ 23/ 29 1018.1
2E DUCK          0600      48                N/A    10/12   7/12
OREGON INLET     0600   48 50  360/ 20/ 28 1017.6
BUOY 44095       0600      48                N/A    14/11  10/11
HATTERAS CG      0600   52 55  360/ 23/ 31 1016.3
DIAMOND BUOY     0600   58 75  360/ 33/ 41 1012.9   17/11  11/11
CAPE LOOKOUT     0600   52     360/ 24/ 30 1016.4
BEAUFORT LAB     0600   51 57  360/ 20/ 24 1016.9
30 SE NEW RIVER  0600   56 68  360/ 27/ 33 1016.0    9/11   5/11
5 SE WRIGHTSVILL 0600   55 58   10/ 23/ 27 1016.8
FRYING PAN BUOY  0600   58 69   20/ 29/ 35 1015.2   11/ 7   5/11
BUOY 41001       NOT AVBL
BUOY 41002       NOT AVBL
BUOY 41004       NOT AVBL

$$



USA.gov is the U.S. government's official web portal to all federal, state and local government web resources and services.